Voltar ao catálogo

SL-8 DEB

AtivoLEO
NORAD 1618·DEBRIS·🇷🇺 Russia

Lançado Sep 18, 1965 de Baikonur Cosmodrome

Loading…

Próximas Passagens (próximas 24 horas)

TLE

AtualizadoSource: Space-Track

Época: Sep 14, 2026, 11:52 UTC

1 01618U 65073K   26257.49500144  .00000060  00000-0  11691-2 0  9992
2 01618  56.1738 276.8234 0227064  14.2382 133.5430 12.30430487734107

Acompanhe SL-8 DEB em tempo real com AllMySat

Download on the App Store